• In Russia
  • List of Countries
  • For 7 days
  • Water Temperature
  • Satellite Maps
  • Weather Map
  • Weather Widgets
  • user-avatar
    Login

    Hourly Weather Igls

    Today, 22 May, Monday

    Time Temperature Precipitation Wind Pressure Humidity
    00:00 +8°C° 0 mm 1 mps 686 mmHg 95%
    01:00 +8°C° 0 mm 1 mps 686 mmHg 95%
    02:00 +8°C° 0 mm 1 mps 686 mmHg 95%
    03:00 +8°C° 0 mm 1 mps 686 mmHg 95%
    04:00 +9°C° 0 mm 1 mps 686 mmHg 95%
    05:00 +10°C° 0 mm 1 mps 686 mmHg 91%
    06:00 +12°C° 0 mm 1 mps 686 mmHg 88%
    07:00 +14°C° 0 mm 1 mps 686 mmHg 83%
    08:00 +16°C° 0 mm 1 mps 687 mmHg 77%
    09:00 +18°C° 0 mm 1 mps 687 mmHg 71%
    10:00 +20°C° 0 mm 1 mps 687 mmHg 65%
    11:00 +21°C° 0.5 mm 1 mps 687 mmHg 66%
    12:00 +21°C° 0.5 mm 1 mps 687 mmHg 67%
    13:00 +21°C° 0.5 mm 1 mps 686 mmHg 68%
    14:00 +21°C° 0.7 mm 1 mps 686 mmHg 69%
    15:00 +20°C° 0.7 mm 1 mps 686 mmHg 71%
    16:00 +20°C° 0.7 mm 1 mps 686 mmHg 72%
    17:00 +19°C° 0.5 mm 1 mps 685 mmHg 78%
    18:00 +16°C° 0.5 mm 1 mps 685 mmHg 84%
    19:00 +15°C° 0.5 mm 1 mps 685 mmHg 90%
    20:00 +13°C° 0.1 mm 1 mps 685 mmHg 92%
    21:00 +11°C° 0.1 mm 1 mps 685 mmHg 93%
    22:00 +10°C° 0.1 mm 1 mps 685 mmHg 95%
    23:00 +9°C° 0 mm 1 mps 685 mmHg 94%

    Tomorrow, 23 May, Tuesday

    Time Temperature Precipitation Wind Pressure Humidity
    00:00 +9°C° 0 mm 1 mps 684 mmHg 93%
    01:00 +9°C° 0 mm 1 mps 684 mmHg 93%
    02:00 +8°C° 0 mm 1 mps 684 mmHg 92%
    03:00 +8°C° 0 mm 1 mps 684 mmHg 91%
    04:00 +8°C° 0 mm 1 mps 684 mmHg 90%
    05:00 +10°C° 0 mm 1 mps 685 mmHg 86%
    06:00 +12°C° 0 mm 1 mps 685 mmHg 81%
    07:00 +14°C° 0 mm 1 mps 686 mmHg 77%
    08:00 +16°C° 0 mm 1 mps 686 mmHg 68%
    09:00 +19°C° 0 mm 1 mps 687 mmHg 59%
    10:00 +21°C° 0 mm 1 mps 687 mmHg 49%
    11:00 +20°C° 0 mm 2 mps 687 mmHg 48%
    12:00 +21°C° 0 mm 2 mps 687 mmHg 47%
    13:00 +23°C° 0 mm 2 mps 687 mmHg 45%
    14:00 +21°C° 0.1 mm 2 mps 687 mmHg 48%
    15:00 +21°C° 0.1 mm 2 mps 687 mmHg 51%
    16:00 +21°C° 0.1 mm 2 mps 687 mmHg 54%
    17:00 +19°C° 0.1 mm 2 mps 686 mmHg 65%
    18:00 +17°C° 0.1 mm 2 mps 686 mmHg 75%
    19:00 +16°C° 0.1 mm 1 mps 686 mmHg 86%
    20:00 +14°C° 0 mm 1 mps 686 mmHg 88%
    21:00 +13°C° 0 mm 1 mps 687 mmHg 91%
    22:00 +11°C° 0 mm 1 mps 687 mmHg 93%
    23:00 +11°C° 0 mm 1 mps 687 mmHg 93%

    Day after tomorrow, 24 May, Wednesday

    Time Temperature Precipitation Wind Pressure Humidity
    00:00 +11°C° 0 mm 1 mps 687 mmHg 93%
    01:00 +10°C° 0 mm 1 mps 686 mmHg 93%
    02:00 +10°C° 0 mm 1 mps 686 mmHg 93%
    03:00 +10°C° 0 mm 1 mps 686 mmHg 93%
    04:00 +10°C° 0 mm 1 mps 686 mmHg 92%
    05:00 +11°C° 0 mm 1 mps 686 mmHg 90%
    06:00 +13°C° 0 mm 1 mps 687 mmHg 87%
    07:00 +14°C° 0 mm 1 mps 687 mmHg 84%
    08:00 +15°C° 0.1 mm 1 mps 687 mmHg 81%
    09:00 +18°C° 0.1 mm 1 mps 688 mmHg 77%
    10:00 +18°C° 0.1 mm 2 mps 688 mmHg 74%
    11:00 +18°C° 0.3 mm 2 mps 687 mmHg 74%
    12:00 +18°C° 0.3 mm 2 mps 687 mmHg 75%
    13:00 +18°C° 0.3 mm 2 mps 687 mmHg 75%
    14:00 +18°C° 0.3 mm 2 mps 686 mmHg 77%
    15:00 +17°C° 0.3 mm 2 mps 686 mmHg 79%
    16:00 +17°C° 0.3 mm 2 mps 686 mmHg 81%
    17:00 +16°C° 0.4 mm 2 mps 686 mmHg 85%
    18:00 +15°C° 0.4 mm 2 mps 686 mmHg 88%
    19:00 +14°C° 0.4 mm 2 mps 686 mmHg 92%
    20:00 +13°C° 0.3 mm 2 mps 686 mmHg 93%
    21:00 +12°C° 0.3 mm 2 mps 686 mmHg 95%
    22:00 +10°C° 0.3 mm 2 mps 687 mmHg 96%
    23:00 +10°C° 0.4 mm 2 mps 687 mmHg 96%

    25 May, Thursday

    Time Temperature Precipitation Wind Pressure Humidity
    00:00 +9°C° 0.4 mm 2 mps 687 mmHg 96%
    01:00 +10°C° 0.4 mm 1 mps 687 mmHg 97%
    02:00 +10°C° 0.2 mm 1 mps 687 mmHg 97%
    03:00 +9°C° 0.2 mm 1 mps 687 mmHg 97%
    04:00 +9°C° 0.2 mm 1 mps 686 mmHg 97%
    05:00 +10°C° 0 mm 1 mps 687 mmHg 94%
    06:00 +11°C° 0 mm 1 mps 687 mmHg 91%
    07:00 +12°C° 0 mm 1 mps 687 mmHg 89%
    08:00 +13°C° 0 mm 1 mps 687 mmHg 81%
    09:00 +15°C° 0 mm 1 mps 688 mmHg 73%
    10:00 +16°C° 0 mm 2 mps 688 mmHg 65%
    11:00 +17°C° 0 mm 2 mps 688 mmHg 60%
    12:00 +18°C° 0 mm 2 mps 688 mmHg 54%
    13:00 +20°C° 0 mm 2 mps 688 mmHg 49%
    14:00 +19°C° 0 mm 2 mps 688 mmHg 51%
    15:00 +19°C° 0 mm 2 mps 687 mmHg 53%
    16:00 +19°C° 0 mm 2 mps 687 mmHg 55%
    17:00 +17°C° 0 mm 2 mps 687 mmHg 65%
    18:00 +16°C° 0 mm 2 mps 687 mmHg 74%
    19:00 +15°C° 0 mm 2 mps 687 mmHg 84%
    20:00 +13°C° 0 mm 1 mps 687 mmHg 88%
    21:00 +12°C° 0 mm 1 mps 687 mmHg 93%
    22:00 +10°C° 0 mm 1 mps 687 mmHg 97%
    23:00 +9°C° 0 mm 1 mps 686 mmHg 96%

    26 May, Friday

    Time Temperature Precipitation Wind Pressure Humidity
    00:00 +8°C° 0 mm 1 mps 686 mmHg 96%
    01:00 +7°C° 0 mm 1 mps 686 mmHg 95%
    02:00 +7°C° 0 mm 1 mps 685 mmHg 93%
    03:00 +7°C° 0 mm 1 mps 685 mmHg 92%
    04:00 +6°C° 0 mm 1 mps 685 mmHg 90%
    05:00 +9°C° 0 mm 1 mps 686 mmHg 83%
    06:00 +12°C° 0 mm 1 mps 686 mmHg 76%
    07:00 +14°C° 0 mm 1 mps 687 mmHg 69%
    08:00 +16°C° 0 mm 1 mps 687 mmHg 64%
    09:00 +17°C° 0 mm 2 mps 687 mmHg 60%
    10:00 +19°C° 0 mm 2 mps 687 mmHg 55%
    11:00 +19°C° 0.1 mm 2 mps 687 mmHg 54%
    12:00 +20°C° 0.1 mm 2 mps 687 mmHg 54%
    13:00 +20°C° 0.1 mm 2 mps 687 mmHg 53%
    14:00 +20°C° 0.1 mm 2 mps 686 mmHg 56%
    15:00 +20°C° 0.1 mm 2 mps 686 mmHg 58%
    16:00 +20°C° 0.1 mm 2 mps 686 mmHg 61%
    17:00 +18°C° 0 mm 2 mps 686 mmHg 69%
    18:00 +17°C° 0 mm 2 mps 686 mmHg 78%
    19:00 +16°C° 0 mm 2 mps 686 mmHg 87%
    20:00 +14°C° 0 mm 1 mps 686 mmHg 90%
    21:00 +12°C° 0 mm 1 mps 686 mmHg 94%
    22:00 +10°C° 0 mm 1 mps 686 mmHg 98%
    23:00 +10°C° 0 mm 1 mps 686 mmHg 97%

    27 May, Saturday

    Time Temperature Precipitation Wind Pressure Humidity
    00:00 +9°C° 0 mm 1 mps 686 mmHg 97%
    01:00 +9°C° 0 mm 1 mps 686 mmHg 96%
    02:00 +8°C° 0 mm 1 mps 685 mmHg 96%
    03:00 +8°C° 0 mm 1 mps 685 mmHg 95%
    04:00 +7°C° 0 mm 1 mps 685 mmHg 94%
    05:00 +10°C° 0 mm 1 mps 686 mmHg 86%
    06:00 +13°C° 0 mm 1 mps 687 mmHg 79%
    07:00 +14°C° 0 mm 0 mps 687 mmHg 71%
    08:00 +18°C° 0 mm 1 mps 688 mmHg 63%
    09:00 +20°C° 0 mm 1 mps 688 mmHg 55%
    10:00 +22°C° 0 mm 1 mps 688 mmHg 47%
    11:00 +21°C° 0 mm 2 mps 688 mmHg 46%
    12:00 +23°C° 0 mm 2 mps 688 mmHg 45%
    13:00 +24°C° 0 mm 2 mps 688 mmHg 44%
    14:00 +23°C° 0 mm 2 mps 688 mmHg 47%
    15:00 +23°C° 0 mm 2 mps 688 mmHg 50%
    16:00 +23°C° 0 mm 2 mps 688 mmHg 53%
    17:00 +20°C° 0 mm 2 mps 687 mmHg 64%
    18:00 +19°C° 0 mm 1 mps 687 mmHg 74%
    19:00 +18°C° 0 mm 1 mps 687 mmHg 85%
    20:00 +15°C° 0 mm 1 mps 687 mmHg 89%
    21:00 +12°C° 0 mm 1 mps 687 mmHg 93%
    22:00 +10°C° 0 mm 1 mps 687 mmHg 97%
    23:00 +11°C° 0 mm 1 mps 687 mmHg 97%
    Show more